Location: Unspecified
(0.0000°N, 0.0000°E)
Time: 17:54:06
(UTC+00:00)

Explorer 27 - Pass Details

Date: 21 May 2026
Orbit: 932 x 1295 km, 41.2° (Epoch: 10 June)

Event Time Altitude Azimuth Distance (km) Brightness Sun altitude
Rises 18:45:13 0° 265° (W) 4,262 12.6 -11.4°
Reaches altitude 10° 18:49:39 10° 286° (WNW) 3,270 12.3 -12.4°
Maximum altitude 18:54:06 15° 319° (NW) 2,825 11.3 -13.4°
Drops below altitude 10° 18:58:26 10° 353° (N) 3,171 11.0 -14.5°
Sets 19:02:40 0° 15° (NNE) 4,065 11.3 -15.5°
